Alexandria, Egypt

3:41 AM EET on May 01, 2017 (GMT +0200)
Alexandria

Weather History for HEAX - October, 2011

Change the Weather History Date:

Wednesday, October 19, 2011

  Actual Average Record
Temperature  
Mean Temperature 72 °F -  
Max Temperature 78 °F 74 °F 98 °F (2010)
Min Temperature 67 °F 60 °F 60 °F (1997)
Cooling Degree Days 8    
Growing Degree Days 22 (Base 50)    
Moisture  
Dew Point 55 °F    
Average Humidity 54    
Maximum Humidity 68    
Minimum Humidity 34    
Precipitation  
Precipitation 0.00 in 0.03 in - ()
Sea Level Pressure  
Sea Level Pressure 30.17 in    
Wind  
Wind Speed 9 mph ()    
Max Wind Speed 13 mph    
Max Gust Speed -    
Visibility 6.2 miles    
Events      
Averages and records for this station are not official NWS values.
T = Trace of Precipitation, MM = Missing Value Source: Averaged Metar Reports

Daily Weather History Graph

Daily Weather History Graph

Search for Another Location

Airport or City:

Trip Planner

Search our weather history database for the weather conditions in past years. The results will help you decide how hot, cold, wet, or windy it might be!

Date:

Astronomy

Oct. 19, 2011 Rise Set
Actual Time 6:05 AM EET 5:24 PM EET
Civil Twilight 5:40 AM EET 5:49 PM EET
Nautical Twilight 5:12 AM EET 6:17 PM EET
Astronomical Twilight 4:44 AM EET 6:45 PM EET
Moon 10:58 PM EET (10/19) 12:12 PM EET (10/19)
Length of Visible Light 12h 08m
Length of Day
11h 19m
Waning Gibbous, 57% of the Moon is Illuminated
Oct 19
Waning Gibbous
Oct 20
Last Quarter
Oct 26
New
Nov 2
First Quarter
Nov 10
Full

Hourly Weather History & Observations

Time (EET) Temp. Dew Point Humidity Pressure Visibility Wind Dir Wind Speed Gust Speed Precip Events Conditions
12:00 AM 69.8 °F 59.0 °F 68% 30.18 in 6.2 mi North 11.5 mph - N/A   Scattered Clouds
1:00 AM 69.8 °F 57.2 °F 64% 30.15 in 6.2 mi North 9.2 mph - N/A   Partly Cloudy
2:00 AM 70 °F 55 °F 50% 30.16 in 6 mi North 8.1 mph - -  
2:00 AM 69.8 °F 55.4 °F 60% 30.15 in - North 8.1 mph - N/A   Clear
3:00 AM 69.8 °F 53.6 °F 56% 30.15 in - NNE 9.2 mph - N/A   Clear
4:00 AM 69.8 °F 53.6 °F 56% 30.15 in 6.2 mi North 9.2 mph - N/A   Partly Cloudy
5:00 AM 68.0 °F 53.6 °F 60% 30.15 in 6.2 mi North 9.2 mph - N/A   Partly Cloudy
6:00 AM 68.0 °F 53.6 °F 60% 30.15 in 6.2 mi North 10.4 mph - N/A   Partly Cloudy
7:00 AM 69.8 °F 53.6 °F 56% 30.18 in 6.2 mi North 8.1 mph - N/A   Partly Cloudy
8:00 AM 72 °F 53 °F 40% 30.20 in 6 mi North 8.1 mph - -   Partly Cloudy
8:00 AM 71.6 °F 53.6 °F 53% 30.18 in 6.2 mi North 8.1 mph - N/A   Scattered Clouds
9:00 AM 71.6 °F 53.6 °F 53% 30.21 in 6.2 mi North 10.4 mph - N/A   Scattered Clouds
10:00 AM 73.4 °F 53.6 °F 50% 30.21 in 6.2 mi North 9.2 mph - N/A   Scattered Clouds
11:00 AM 77.0 °F 55.4 °F 47% 30.21 in 6.2 mi North 11.5 mph - N/A   Scattered Clouds
12:00 PM 77.0 °F 55.4 °F 47% 30.21 in 6.2 mi North 11.5 mph - N/A   Scattered Clouds
1:00 PM 77.0 °F 55.4 °F 47% 30.18 in 6.2 mi North 11.5 mph - N/A   Scattered Clouds
2:00 PM 78 °F 55 °F 34% 30.18 in 6 mi North 9.2 mph - -   Mostly Cloudy
2:00 PM 78.8 °F 55.4 °F 44% 30.18 in 6.2 mi North 9.2 mph - N/A   Scattered Clouds
3:00 PM 77.0 °F 55.4 °F 47% 30.15 in 6.2 mi North 9.2 mph - N/A   Scattered Clouds
4:00 PM 73.4 °F 53.6 °F 50% 30.15 in 6.2 mi North 12.7 mph - N/A   Scattered Clouds
5:00 PM 69.8 °F 53.6 °F 56% 30.15 in 6.2 mi North 11.5 mph - N/A   Scattered Clouds
6:00 PM 69.8 °F 53.6 °F 56% 30.15 in 6.2 mi North 12.7 mph - N/A   Scattered Clouds
7:00 PM 69.8 °F 55.4 °F 60% 30.15 in 6.2 mi North 10.4 mph - N/A   Scattered Clouds
8:00 PM 69 °F 55 °F 52% 30.17 in 6 mi North 11.5 mph - -   Mostly Cloudy
8:00 PM 69.8 °F 55.4 °F 60% 30.15 in 6.2 mi North 11.5 mph - N/A   Scattered Clouds
9:00 PM 71.6 °F 57.2 °F 60% 30.18 in 6.2 mi North 9.2 mph - N/A   Scattered Clouds
10:00 PM 68.0 °F 53.6 °F 60% 30.18 in 6.2 mi North 8.1 mph - N/A   Scattered Clouds
11:00 PM 69.8 °F 57.2 °F 64% 30.15 in 6.2 mi North 6.9 mph - N/A   Scattered Clouds